287P/Christensen (2023)

Japanese version
Home page
Updated on November 27, 2024

---------------------------------------------------------------------

* Profile

* Pictures

* Orbital Elements

Epoch 2024 Mar. 31.0 TT = JDT 2460400.5
T 2023 July 6.76531 TT                                  Rudenko
q   3.0348259            (2000.0)            P               Q
n   0.11583611     Peri.  189.28427     +0.84662612     +0.49928465
a   4.1677987      Node   139.02400     -0.46846969     +0.86342924
e   0.2718396      Incl.   16.31642     -0.25250813     +0.07214421
P   8.51
>From 371 observations 2006 Aug. 30-2023 Dec. 9, mean residual 0".9.
     Nongravitational parameters A1 = -4.58, A2 = +0.2194.

* Finding Charts

* Magnitudes Graph

        m1 = 8.5 + 5 log d + 16.0 log r

---------------------------------------------------------------------

The orbital elements are published on M.P.E.C. 2024-G193.
The charts are made with StellaNavigator Ver.10 (AstroArts).
The magnitudes graphs are made with Comet for Windows.

---------------------------------------------------------------------

Copyright(C) Seiichi Yoshida (comet@aerith.net). All rights reserved.